Weather History for Saguache, CO

Change the Weather History Date:

Monday, March 4, 2013

  Actual Average (KALS) Record (KALS)
Temperature  
Mean Temperature - 30 °F  
Max Temperature - 46 °F 62 °F (2009)
Min Temperature - 13 °F -20 °F (1964)
Degree Days  
Heating Degree Days 35  
Month to date heating degree days 143  
Since 1 July heating degree days 6472  
Cooling Degree Days 0  
Month to date cooling degree days 0  
Year to date cooling degree days 0  
Moisture  
Dew Point -    
Average Humidity    
Maximum Humidity    
Minimum Humidity    
Precipitation  
Precipitation 0.02 in 0.01 in 1.15 in (1992)
Month to date precipitation 0.05  
Year to date precipitation 0.57  
Snow  
Snow 0.00 in 0.20 in 12.00 in (1992)
Month to date snowfall 0.6  
Since 1 July snowfall 18.7  
Snow Depth -    
Sea Level Pressure  
Sea Level Pressure 29.91 in    
Wind  
Wind Speed 10 mph (NNW)    
Max Wind Speed 34 mph    
Max Gust Speed 45 mph    
Visibility 9 miles    
Events      
T = Trace of Precipitation, MM = Missing Value Source: NWS Daily Summary

Daily Weather History Graph

Daily Weather History Graph

Search for Another Location

Airport:

Trip Planner

Search our weather history database for the weather conditions in past years. The results will help you decide how hot, cold, wet, or windy it might be!

Date:

Astronomy

Mar. 04, 2013 Rise Set
Actual Time 6:31 AM MST 6:01 PM MST
Civil Twilight 6:05 AM MST 6:27 PM MST
Nautical Twilight 5:34 AM MST 6:58 PM MST
Astronomical Twilight 5:04 AM MST 7:28 PM MST
Moon 12:40 AM MST (3/4) 10:49 AM MST (3/4)
Length of Visible Light 12h 22m
Length of Day
11h 29m
Waning Gibbous, 51% of the Moon is Illuminated
Mar 4
Waning Gibbous
Mar 4
Last Quarter
Mar 11
New
Mar 19
First Quarter
Mar 27
Full

Hourly Weather History & Observations

Time (MST) Temp. Dew Point Humidity Pressure Visibility Wind Dir Wind Speed Gust Speed Precip Events Conditions
12:15 AM - - N/A% 29.86 in 10.0 mi NNW 5.8 mph - N/A   Scattered Clouds
12:32 AM - - N/A% 29.86 in 10.0 mi NNE 10.4 mph - N/A   Mostly Cloudy
12:55 AM - - N/A% 29.86 in 10.0 mi NNE 5.8 mph - N/A   Mostly Cloudy
1:15 AM - - N/A% 29.86 in 10.0 mi NW 6.9 mph - N/A   Mostly Cloudy
1:35 AM - - N/A% 29.86 in 10.0 mi WNW 6.9 mph - N/A   Overcast
1:55 AM - - N/A% 29.86 in 10.0 mi NW 3.5 mph - N/A   Overcast
2:15 AM - - N/A% 29.85 in 10.0 mi NW 4.6 mph - N/A   Overcast
2:34 AM - - N/A% 29.84 in 10.0 mi NNW 9.2 mph - N/A   Overcast
2:53 AM - - N/A% 29.84 in 10.0 mi NW 9.2 mph - N/A   Overcast
3:15 AM - - N/A% 29.83 in 4.0 mi North 8.1 mph - N/A   Overcast
3:35 AM - - N/A% 29.83 in 2.0 mi NW 6.9 mph - N/A   Overcast
3:55 AM - - N/A% 29.83 in 5.0 mi NNW 4.6 mph - N/A   Mostly Cloudy
4:15 AM - - N/A% 29.83 in 10.0 mi NNW 5.8 mph - N/A   Scattered Clouds
4:30 AM - - N/A% 29.83 in 10.0 mi NW 6.9 mph - N/A   Scattered Clouds
4:54 AM - - N/A% 29.83 in 10.0 mi NW 8.1 mph - N/A   Scattered Clouds
5:14 AM - - N/A% 29.83 in 10.0 mi NNW 4.6 mph - N/A   Scattered Clouds
5:35 AM - - N/A% 29.83 in 10.0 mi North 4.6 mph - N/A   Scattered Clouds
5:55 AM - - N/A% 29.83 in 10.0 mi NNW 5.8 mph - N/A   Scattered Clouds
6:10 AM - - N/A% 29.83 in 10.0 mi NW 5.8 mph - N/A   Mostly Cloudy
6:35 AM - - N/A% 29.83 in 10.0 mi Calm Calm - N/A   Mostly Cloudy
6:49 AM - - N/A% 29.83 in 10.0 mi West 3.5 mph - N/A   Mostly Cloudy
7:09 AM - - N/A% 29.83 in 10.0 mi NNW 9.2 mph - N/A   Overcast
7:35 AM - - N/A% 29.84 in 7.0 mi North 5.8 mph - N/A   Overcast
7:54 AM - - N/A% 29.84 in 4.0 mi North 4.6 mph - N/A   Overcast
8:12 AM - - N/A% 29.85 in 10.0 mi West 3.5 mph - N/A   Overcast
8:35 AM - - N/A% 29.86 in 0.5 mi North 8.1 mph - 0.01 in   Overcast
8:55 AM - - N/A% 29.86 in 0.2 mi WNW 8.1 mph 12.7 mph 0.01 in   Overcast
9:09 AM - - N/A% 29.86 in 0.8 mi NW 5.8 mph - 0.01 in   Overcast
9:32 AM - - N/A% 29.85 in 4.0 mi Calm Calm - 0.01 in   Overcast
9:53 AM - - N/A% 29.84 in 7.0 mi NNW 6.9 mph - 0.01 in   Overcast
10:11 AM - - N/A% 29.84 in 10.0 mi NW 12.7 mph - N/A   Unknown
10:30 AM - - N/A% 29.83 in 10.0 mi NW 15.0 mph 18.4 mph N/A   Mostly Cloudy
10:55 AM - - N/A% 29.82 in 10.0 mi NNW 10.4 mph - N/A   Scattered Clouds
11:15 AM - - N/A% 29.81 in 10.0 mi NW 24.2 mph 31.1 mph N/A   Clear
11:51 AM - - N/A% 29.82 in 10.0 mi NW 28.8 mph 34.5 mph N/A   Clear
12:10 PM - - N/A% 29.82 in 10.0 mi NW 34.5 mph 44.9 mph N/A   Clear
12:33 PM - - N/A% 29.82 in 10.0 mi NW 29.9 mph 39.1 mph N/A   Clear
12:55 PM - - N/A% 29.82 in 10.0 mi NW 28.8 mph 36.8 mph N/A   Clear
1:10 PM - - N/A% 29.82 in 10.0 mi NW 26.5 mph 36.8 mph N/A   Clear
1:31 PM - - N/A% 29.82 in 10.0 mi NW 27.6 mph 34.5 mph N/A   Clear
1:55 PM - - N/A% 29.82 in 10.0 mi NNW 24.2 mph 32.2 mph N/A   Clear
2:14 PM - - N/A% 29.81 in 10.0 mi NNW 20.7 mph 29.9 mph N/A   Scattered Clouds
2:35 PM - - N/A% 29.80 in 10.0 mi NW 21.9 mph 28.8 mph N/A   Scattered Clouds
2:55 PM - - N/A% 29.82 in 10.0 mi NNW 19.6 mph 27.6 mph N/A   Clear
3:15 PM - - N/A% 29.82 in 10.0 mi NW 16.1 mph 21.9 mph N/A   Clear
3:35 PM - - N/A% 29.83 in 10.0 mi NW 25.3 mph 32.2 mph N/A   Scattered Clouds
3:55 PM - - N/A% 29.83 in 10.0 mi NW 21.9 mph 31.1 mph N/A   Scattered Clouds
4:14 PM - - N/A% 29.84 in 10.0 mi WNW 23.0 mph 34.5 mph N/A   Scattered Clouds
4:35 PM - - N/A% 29.86 in 10.0 mi NW 21.9 mph 31.1 mph N/A   Mostly Cloudy
4:54 PM - - N/A% 29.90 in 10.0 mi NNW 26.5 mph 33.4 mph N/A   Overcast
5:15 PM - - N/A% 29.92 in 10.0 mi NNW 16.1 mph 31.1 mph N/A   Scattered Clouds
5:35 PM - - N/A% 29.95 in 10.0 mi NNW 6.9 mph - N/A   Mostly Cloudy
5:50 PM - - N/A% 29.97 in 10.0 mi NNW 15.0 mph 21.9 mph N/A   Overcast
6:11 PM - - N/A% 30.00 in 10.0 mi North 19.6 mph 28.8 mph N/A   Overcast
6:30 PM - - N/A% 30.02 in 10.0 mi NW 13.8 mph 28.8 mph N/A   Overcast
6:55 PM - - N/A% 30.04 in 10.0 mi NNW 20.7 mph 33.4 mph N/A   Scattered Clouds
7:15 PM - - N/A% 30.06 in 10.0 mi NW 19.6 mph 26.5 mph N/A   Scattered Clouds
7:35 PM - - N/A% 30.07 in 10.0 mi WNW 12.7 mph 21.9 mph N/A   Scattered Clouds
7:55 PM - - N/A% 30.07 in 10.0 mi WNW 11.5 mph - N/A   Clear
8:15 PM - - N/A% 30.09 in 10.0 mi NW 9.2 mph - N/A   Clear
8:33 PM - - N/A% 30.09 in 10.0 mi NNW 12.7 mph - N/A   Clear
8:50 PM - - N/A% 30.11 in 10.0 mi Calm Calm - N/A   Clear
9:15 PM - - N/A% 30.13 in 10.0 mi North 6.9 mph - N/A   Clear
9:34 PM - - N/A% 30.14 in 10.0 mi North 6.9 mph - N/A   Clear
9:49 PM - - N/A% 30.15 in 10.0 mi North 6.9 mph - N/A   Clear
10:15 PM - - N/A% 30.16 in 10.0 mi North 6.9 mph - N/A   Clear
10:35 PM - - N/A% 30.16 in 10.0 mi North 8.1 mph - N/A   Clear
10:51 PM - - N/A% 30.17 in 10.0 mi NNE 10.4 mph - N/A   Clear
11:09 PM - - N/A% 30.17 in 10.0 mi North 11.5 mph - N/A   Clear
11:35 PM - - N/A% 30.16 in 10.0 mi North 13.8 mph - N/A   Clear
11:53 PM - - N/A% 30.17 in 10.0 mi NNE 6.9 mph - N/A   Clear